Lid_Strength_Index
2 2 2 1 1 1 1 1 1 1 1 2 2 3 2 2 4 8 10 10 12 15 14 13 13 15 15 15 17 18 16 16 17 18 18 19 21 20 23 21 21 21 22 22 22 26 24 15 15 17 14 14 14 14
2 1 2 1 1 1 1 1 1 1 1 1 1 1 2 2 4 6 10 9 10 14 14 12 12 12 12 13 16 18 16 18 15 18 20 19 22 22 23 25 18 19 17 20 18 19 14 13 13 11 12 13 12 12
2 2 1 1 1 1 1 1 1 1 0 1 1 1 1 1 2 4 7 8 9 13 13 14 14 11 11 12 11 15 16 14 14 13 18 19 22 18 23 22 20 17 16 18 18 16 15 13 11 12 11 11 11 11
2 2 2 1 1 1 1 1 1 1 1 1 1 1 1 1 1 2 6 5 7 10 16 14 12 12 9 9 9 10 11 12 11 12 16 19 21 15 19 17 18 16 16 19 18 15 14 12 11 11 11 11 11 11
2 1 2 1 1 1 1 1 1 1 1 1 1 1 0 0 0 1 3 4 4 9 15 16 13 10 9 9 10 10 10 11 12 15 18 19 16 16 18 16 19 15 16 17 18 13 12 11 11 10 11 11 11 11
2 2 2 2 1 1 0 -0 0 0 0 1 0 1 1 0 0 2 7 4 3 5 9 16 11 12 10 10 10 11 10 12 12 14 15 15 13 14 21 22 14 12 13 12 13 11 10 9 9 10 10 10 9 10
2 2 2 2 1 0 -0 -1 -0 -0 0 0 0 0 0 1 2 7 7 5 2 3 9 13 17 13 11 11 13 12 11 12 12 13 15 13 13 11 14 20 13 12 12 12 10 10 11 10 10 10 10 9 10 11
2 2 1 1 1 -1 -0 -0 -1 -1 -0 -0 -0 0 1 1 1 5 3 1 1 6 7 11 18 14 10 13 12 11 12 11 11 11 12 15 12 11 16 13 11 10 11 11 10 9 8 9 10 10 11 12 13 12
1 0 0 1 -0 -0 -0 -0 -0 -1 -1 -1 -1 -0 2 4 6 6 1 1 2 6 10 11 17 21 11 10 10 10 9 12 9 11 12 10 13 15 14 12 11 10 10 9 8 11 10 11 9 11 13 15 13 11
-0 0 -0 -0 0 -0 -0 -0 -0 -1 -1 -1 2 5 8 6 2 2 4 6 6 7 7 11 17 21 12 14 16 12 10 11 13 12 10 12 12 11 11 12 10 9 9 8 14 14 19 15 12 12 13 11 11 12
-0 -0 -0 -0 0 -0 -0 -0 -0 -1 -0 4 6 8 6 2 5 8 11 10 10 11 9 16 17 17 13 18 17 10 13 12 15 14 13 14 17 12 9 10 8 9 9 10 9 8 12 12 12 12 14 15 16 18
0 -0 0 0 -0 -0 -0 -1 -0 2 3 4 4 3 4 6 8 11 11 14 13 16 17 13 15 14 16 13 15 12 14 13 16 13 14 16 15 11 13 10 8 8 8 12 13 11 16 16 18 18 19 20 22 22
1 0 0 0 0 -0 -0 -1 -0 -0 1 4 6 8 8 9 12 14 16 16 19 23 18 15 17 13 13 10 12 13 17 17 17 15 16 17 12 14 16 16 16 21 20 18 21 20 20 22 23 24 24 25 25 27
1 0 0 0 1 1 0 0 -1 1 5 9 10 12 12 14 12 15 18 18 16 18 16 16 13 14 14 12 11 14 13 15 17 19 21 13 20 25 24 24 24 24 24 22 24 23 24 25 26 27 26 27 27 28
1 0 1 1 1 1 1 0 0 2 7 9 9 13 14 17 23 26 28 22 19 18 12 14 14 10 13 12 11 13 16 17 17 19 19 23 25 26 26 28 29 27 27 28 29 27 27 26 27 30 31 30 30 30
1 2 3 1 1 1 1 1 2 3 6 8 10 14 22 20 21 22 23 19 16 12 13 12 14 13 13 12 14 15 16 18 19 22 26 25 28 28 29 29 28 28 28 29 29 28 26 28 27 30 33 34 34 32
3 11 3 2 2 3 3 7 6 8 12 11 14 29 24 21 17 19 19 15 12 11 15 14 14 15 13 16 17 20 21 23 25 25 26 26 27 28 26 28 30 30 30 27 28 28 30 30 30 29 29 33 35 35
11 8 3 3 6 9 16 14 10 11 15 16 15 22 26 28 25 23 21 17 15 14 14 14 11 13 14 15 15 21 22 23 25 25 25 26 27 29 30 30 31 31 28 29 28 30 30 29 28 31 32 35 33 32
7 7 3 4 7 17 18 18 17 17 22 23 19 19 19 21 20 20 20 17 15 15 14 13 14 17 22 25 26 24 24 24 24 24 25 26 26 27 27 28 29 30 31 35 33 31 32 32 30 30 30 30 30 34
4 4 6 5 8 18 22 20 20 20 24 21 21 22 19 19 20 21 20 18 15 18 23 24 28 28 28 27 27 27 26 25 24 23 23 25 26 27 28 28 28 30 30 31 30 29 31 31 32 32 32 28 27 27
8 8 8 14 15 17 21 22 24 24 24 26 26 21 21 20 22 22 21 20 23 29 29 32 30 28 27 26 26 28 26 27 26 26 26 25 26 27 29 30 30 31 31 34 33 32 30 30 31 32 32 30 29 29
11 9 18 14 16 19 20 21 23 23 24 26 23 23 26 25 24 24 21 26 28 30 31 30 30 30 30 28 28 28 28 27 24 24 25 25 26 27 29 31 30 31 30 31 31 31 32 33 33 33 33 33 33 33
12 13 17 18 20 22 24 20 22 22 22 23 22 21 24 25 24 20 27 28 29 27 30 30 29 29 29 28 28 26 26 26 26 26 26 26 27 27 27 28 29 30 31 31 35 35 34 31 31 32 33 33 33 32
16 22 22 24 23 25 22 22 20 20 22 24 23 24 27 26 23 24 29 29 28 26 27 28 28 27 25 25 26 26 27 27 25 26 28 26 27 30 32 34 35 37 35 36 35 35 34 34 31 32 32 31 29 27
23 29 27 29 26 26 26 26 25 23 25 25 24 24 26 25 24 28 28 28 27 27 28 29 30 29 30 29 26 26 28 28 26 26 29 35 35 35 33 35 35 35 37 34 33 34 34 34 32 29 25 24 25 25
32 31 31 32 30 29 28 27 27 28 25 25 27 26 26 24 27 31 30 29 28 28 28 29 32 31 27 27 27 25 27 31 32 28 30 37 35 33 35 33 32 29 35 35 34 33 32 25 25 24 24 23 22 23
33 33 31 27 28 28 27 25 25 27 30 30 31 26 25 30 32 31 28 26 27 26 25 26 28 29 28 27 26 26 27 30 28 27 30 34 34 35 32 31 30 27 30 31 30 29 26 25 24 23 23 22 23 24
32 33 34 31 30 30 30 31 33 34 33 32 30 31 32 32 33 28 25 23 24 24 24 24 26 26 27 25 25 24 23 23 27 29 28 27 27 26 26 25 25 19 23 24 24 23 24 24 24 24 24 24 23 23
32 32 32 29 30 32 35 35 35 34 34 35 30 30 30 27 27 27 26 25 24 24 24 24 23 22 24 23 22 23 22 23 24 25 25 25 24 23 21 22 23 24 25 28 23 19 21 23 24 25 25 25 24 24
33 33 30 30 32 35 35 37 35 35 33 33 33 26 26 26 25 24 24 24 24 24 24 23 23 23 24 25 25 24 25 24 24 25 27 26 25 23 23 23 23 23 24 26 25 25 22 23 23 26 25 26 27 25
32 34 31 31 33 34 35 36 35 34 33 31 30 28 29 28 25 21 22 22 23 23 23 24 24 24 25 25 26 26 26 24 24 24 24 24 24 23 23 23 23 24 26 28 29 30 28 28 30 29 30 29 29 27
33 38 35 33 33 34 36 34 34 32 31 30 30 30 29 28 28 24 22 22 23 24 24 24 26 25 25 26 26 25 23 24 24 24 25 23 23 23 22 22 24 29 27 26 28 29 30 32 32 33 32 31 31 31
34 33 32 31 32 32 32 33 30 30 30 30 29 30 31 28 28 25 23 22 23 24 25 25 24 23 24 25 26 24 25 27 26 21 21 21 22 21 22 25 26 28 29 31 31 31 31 32 32 32 33 33 32 32